{"data":{"norad_id":81674,"epoch":"2026-05-23T18:17:17.556000Z","epoch_age_seconds":182163,"freshness":"STALE","line1":"1 81674U          26143.76200875  .00000411  00000+0  27637-3 0  9990","line2":"2 81674  66.8227 316.1491 0019541 110.0276 269.9924 14.10305347636566","mean_motion":14.10305347,"eccentricity":0.0019541,"inclination_deg":66.8227,"raan_deg":316.1491,"arg_perigee_deg":110.0276,"mean_anomaly_deg":269.9924,"bstar":0.00027637,"rev_number":63656,"period_min":102.10554778532,"perigee_km":844.18623258657,"apogee_km":872.46778121835,"semimajor_km":7236.4640069025,"source":"CELESTRAK","updated_at":"2026-05-25T13:38:11.081395Z"}}